Year,Month,Day,Hour,Minute,Value (Times are PST for temperature in C)
2017,07,14,00,00,10.00
2017,07,14,00,01,10.00
2017,07,14,00,02,10.00
2017,07,14,00,03,10.10
2017,07,14,00,04,10.10
2017,07,14,00,05,10.20
2017,07,14,00,06,10.20
2017,07,14,00,07,10.10
2017,07,14,00,08,10.10
2017,07,14,00,09,10.10
2017,07,14,00,10,10.00
2017,07,14,00,11,10.00
2017,07,14,00,12,9.90
2017,07,14,00,13,9.90
2017,07,14,00,14,9.90
2017,07,14,00,15,9.90
2017,07,14,00,16,9.80
2017,07,14,00,17,9.80
2017,07,14,00,18,9.80
2017,07,14,00,19,9.80
2017,07,14,00,20,9.70
2017,07,14,00,21,9.70
2017,07,14,00,22,9.60
2017,07,14,00,23,9.60
2017,07,14,00,24,9.60
2017,07,14,00,25,9.60
2017,07,14,00,26,9.50
2017,07,14,00,27,9.50
2017,07,14,00,28,9.50
2017,07,14,00,29,9.40
2017,07,14,00,30,9.40
2017,07,14,00,31,9.40
2017,07,14,00,32,9.40
2017,07,14,00,33,9.40
2017,07,14,00,34,9.40
2017,07,14,00,35,9.40
2017,07,14,00,36,9.30
2017,07,14,00,37,9.30
2017,07,14,00,38,9.30
2017,07,14,00,39,9.30
2017,07,14,00,40,9.30
2017,07,14,00,41,9.30
2017,07,14,00,42,9.30
2017,07,14,00,43,9.30
2017,07,14,00,44,9.30
2017,07,14,00,45,9.30
2017,07,14,00,46,9.30
2017,07,14,00,47,9.40
2017,07,14,00,48,9.40
2017,07,14,00,49,9.40
2017,07,14,00,50,9.40
2017,07,14,00,51,9.40
2017,07,14,00,52,9.40
2017,07,14,00,53,9.40
2017,07,14,00,54,9.40
2017,07,14,00,55,9.40
2017,07,14,00,56,9.40
2017,07,14,00,57,9.50
2017,07,14,00,58,9.50
2017,07,14,00,59,9.50
2017,07,14,01,00,9.50
2017,07,14,01,01,9.50
2017,07,14,01,02,9.40
2017,07,14,01,03,9.40
2017,07,14,01,04,9.40
2017,07,14,01,05,9.40
2017,07,14,01,06,9.40
2017,07,14,01,07,9.40
2017,07,14,01,08,9.40
2017,07,14,01,09,9.40
2017,07,14,01,10,9.40
2017,07,14,01,11,9.40
2017,07,14,01,12,9.40
2017,07,14,01,13,9.40
2017,07,14,01,14,9.40
2017,07,14,01,15,9.40
2017,07,14,01,16,9.30
2017,07,14,01,17,9.30
2017,07,14,01,18,9.30
2017,07,14,01,19,9.30
2017,07,14,01,20,9.30
2017,07,14,01,21,9.30
2017,07,14,01,22,9.30
2017,07,14,01,23,9.30
2017,07,14,01,24,9.20
2017,07,14,01,25,9.20
2017,07,14,01,26,9.20
2017,07,14,01,27,9.20
2017,07,14,01,28,9.20
2017,07,14,01,29,9.20
2017,07,14,01,30,9.20
2017,07,14,01,31,9.20
2017,07,14,01,32,9.20
2017,07,14,01,33,9.20
2017,07,14,01,34,9.20
2017,07,14,01,35,9.20
2017,07,14,01,36,9.10
2017,07,14,01,37,9.10
2017,07,14,01,38,9.10
2017,07,14,01,39,9.10
2017,07,14,01,40,9.10
2017,07,14,01,41,9.00
2017,07,14,01,42,9.00
2017,07,14,01,43,9.00
2017,07,14,01,44,9.00
2017,07,14,01,45,9.00
2017,07,14,01,46,9.00
2017,07,14,01,47,9.00
2017,07,14,01,48,9.00
2017,07,14,01,49,9.00
2017,07,14,01,50,9.00
2017,07,14,01,51,9.00
2017,07,14,01,52,9.00
2017,07,14,01,53,9.00
2017,07,14,01,54,9.00
2017,07,14,01,55,9.00
2017,07,14,01,56,9.00
2017,07,14,01,57,8.90
2017,07,14,01,58,8.90
2017,07,14,01,59,8.90
2017,07,14,02,00,8.90
2017,07,14,02,01,8.90
2017,07,14,02,02,8.90
2017,07,14,02,03,8.90
2017,07,14,02,04,9.00
2017,07,14,02,05,9.00
2017,07,14,02,06,9.00
2017,07,14,02,07,8.90
2017,07,14,02,08,8.90
2017,07,14,02,09,8.90
2017,07,14,02,10,8.90
2017,07,14,02,11,8.90
2017,07,14,02,12,8.90
2017,07,14,02,13,8.80
2017,07,14,02,14,8.80
2017,07,14,02,15,8.80
2017,07,14,02,16,8.80
2017,07,14,02,17,8.80
2017,07,14,02,18,8.70
2017,07,14,02,19,8.70
2017,07,14,02,20,8.70
2017,07,14,02,21,8.70
2017,07,14,02,22,8.70
2017,07,14,02,23,8.70
2017,07,14,02,24,8.70
2017,07,14,02,25,8.70
2017,07,14,02,26,8.70
2017,07,14,02,27,8.70
2017,07,14,02,28,8.70
2017,07,14,02,29,8.70
2017,07,14,02,30,8.70
2017,07,14,02,31,8.70
2017,07,14,02,32,8.70
2017,07,14,02,33,8.70
2017,07,14,02,34,8.60
2017,07,14,02,35,8.60
2017,07,14,02,36,8.60
2017,07,14,02,37,8.60
2017,07,14,02,38,8.50
2017,07,14,02,39,8.50
2017,07,14,02,40,8.50
2017,07,14,02,41,8.50
2017,07,14,02,42,8.50
2017,07,14,02,43,8.50
2017,07,14,02,44,8.40
2017,07,14,02,45,8.40
2017,07,14,02,46,8.40
2017,07,14,02,47,8.40
2017,07,14,02,48,8.40
2017,07,14,02,49,8.40
2017,07,14,02,50,8.30
2017,07,14,02,51,8.30
2017,07,14,02,52,8.30
2017,07,14,02,53,8.30
2017,07,14,02,54,8.30
2017,07,14,02,55,8.40
2017,07,14,02,56,8.40
2017,07,14,02,57,8.40
2017,07,14,02,58,8.40
2017,07,14,02,59,8.40
2017,07,14,03,00,8.40
2017,07,14,03,01,8.40
2017,07,14,03,02,8.40
2017,07,14,03,03,8.40
2017,07,14,03,04,8.40
2017,07,14,03,05,8.40
2017,07,14,03,06,8.30
2017,07,14,03,07,8.30
2017,07,14,03,08,8.30
2017,07,14,03,09,8.30
2017,07,14,03,10,8.30
2017,07,14,03,11,8.30
2017,07,14,03,12,8.20
2017,07,14,03,13,8.20
2017,07,14,03,14,8.20
2017,07,14,03,15,8.20
2017,07,14,03,16,8.20
2017,07,14,03,17,8.20
2017,07,14,03,18,8.20
2017,07,14,03,19,8.20
2017,07,14,03,20,8.20
2017,07,14,03,21,8.20
2017,07,14,03,22,8.20
2017,07,14,03,23,8.20
2017,07,14,03,24,8.20
2017,07,14,03,25,8.20
2017,07,14,03,26,8.20
2017,07,14,03,27,8.20
2017,07,14,03,28,8.20
2017,07,14,03,29,8.20
2017,07,14,03,30,8.20
2017,07,14,03,31,8.20
2017,07,14,03,32,8.20
2017,07,14,03,33,8.20
2017,07,14,03,34,8.20
2017,07,14,03,35,8.20
2017,07,14,03,36,8.20
2017,07,14,03,37,8.20
2017,07,14,03,38,8.20
2017,07,14,03,39,8.20
2017,07,14,03,40,8.20
2017,07,14,03,41,8.20
2017,07,14,03,42,8.20
2017,07,14,03,43,8.20
2017,07,14,03,44,8.20
2017,07,14,03,45,8.20
2017,07,14,03,46,8.20
2017,07,14,03,47,8.10
2017,07,14,03,48,8.10
2017,07,14,03,49,8.10
2017,07,14,03,50,8.10
2017,07,14,03,51,8.10
2017,07,14,03,52,8.10
2017,07,14,03,53,8.10
2017,07,14,03,54,8.10
2017,07,14,03,55,8.10
2017,07,14,03,56,8.10
2017,07,14,03,57,8.10
2017,07,14,03,58,8.00
2017,07,14,03,59,8.00
2017,07,14,04,00,8.00
2017,07,14,04,01,8.00
2017,07,14,04,02,8.00
2017,07,14,04,03,8.00
2017,07,14,04,04,7.90
2017,07,14,04,05,7.90
2017,07,14,04,06,7.90
2017,07,14,04,07,7.90
2017,07,14,04,08,7.90
2017,07,14,04,09,7.90
2017,07,14,04,10,7.90
2017,07,14,04,11,7.90
2017,07,14,04,12,7.90
2017,07,14,04,13,7.90
2017,07,14,04,14,7.90
2017,07,14,04,15,7.90
2017,07,14,04,16,7.80
2017,07,14,04,17,7.90
2017,07,14,04,18,7.90
2017,07,14,04,19,7.90
2017,07,14,04,20,7.90
2017,07,14,04,21,7.90
2017,07,14,04,22,7.90
2017,07,14,04,23,7.90
2017,07,14,04,24,7.90
2017,07,14,04,25,7.90
2017,07,14,04,26,7.80
2017,07,14,04,27,7.80
2017,07,14,04,28,7.80
2017,07,14,04,29,7.80
2017,07,14,04,30,7.80
2017,07,14,04,31,7.80
2017,07,14,04,32,7.80
2017,07,14,04,33,7.80
2017,07,14,04,34,7.70
2017,07,14,04,35,7.70
2017,07,14,04,36,7.70
2017,07,14,04,37,7.70
2017,07,14,04,38,7.80
2017,07,14,04,39,7.80
2017,07,14,04,40,7.80
2017,07,14,04,41,7.80
2017,07,14,04,42,7.80
2017,07,14,04,43,7.80
2017,07,14,04,44,7.70
2017,07,14,04,45,7.70
2017,07,14,04,46,7.70
2017,07,14,04,47,7.70
2017,07,14,04,48,7.70
2017,07,14,04,49,7.70
2017,07,14,04,50,7.70
2017,07,14,04,51,7.70
2017,07,14,04,52,7.60
2017,07,14,04,53,7.60
2017,07,14,04,54,7.60
2017,07,14,04,55,7.60
2017,07,14,04,56,7.50
2017,07,14,04,57,7.50
2017,07,14,04,58,7.50
2017,07,14,04,59,7.50
2017,07,14,05,00,7.50
2017,07,14,05,01,7.50
2017,07,14,05,02,7.50
2017,07,14,05,03,7.50
2017,07,14,05,04,7.60
2017,07,14,05,05,7.60
2017,07,14,05,06,7.50
2017,07,14,05,07,7.50
2017,07,14,05,08,7.50
2017,07,14,05,09,7.50
2017,07,14,05,10,7.50
2017,07,14,05,11,7.50
2017,07,14,05,12,7.50
2017,07,14,05,13,7.50
2017,07,14,05,14,7.50
2017,07,14,05,15,7.50
2017,07,14,05,16,7.50
2017,07,14,05,17,7.50
2017,07,14,05,18,7.50
2017,07,14,05,19,7.50
2017,07,14,05,20,7.50
2017,07,14,05,21,7.50
2017,07,14,05,22,7.50
2017,07,14,05,23,7.40
2017,07,14,05,24,7.40
2017,07,14,05,25,7.40
2017,07,14,05,26,7.40
2017,07,14,05,27,7.40
2017,07,14,05,28,7.40
2017,07,14,05,29,7.40
2017,07,14,05,30,7.40
2017,07,14,05,31,7.40
2017,07,14,05,32,7.40
2017,07,14,05,33,7.40
2017,07,14,05,34,7.40
2017,07,14,05,35,7.40
2017,07,14,05,36,7.40
2017,07,14,05,37,7.40
2017,07,14,05,38,7.40
2017,07,14,05,39,7.40
2017,07,14,05,40,7.40
2017,07,14,05,41,7.40
2017,07,14,05,42,7.40
2017,07,14,05,43,7.40
2017,07,14,05,44,7.40
2017,07,14,05,45,7.40
2017,07,14,05,46,7.40
2017,07,14,05,47,7.40
2017,07,14,05,48,7.40
2017,07,14,05,49,7.40
2017,07,14,05,50,7.40
2017,07,14,05,51,7.40
2017,07,14,05,52,7.40
2017,07,14,05,53,7.40
2017,07,14,05,54,7.40
2017,07,14,05,55,7.40
2017,07,14,05,56,7.40
2017,07,14,05,57,7.40
2017,07,14,05,58,7.40
2017,07,14,05,59,7.40
2017,07,14,06,00,7.40
2017,07,14,06,01,7.40
2017,07,14,06,02,7.40
2017,07,14,06,03,7.40
2017,07,14,06,04,7.40
2017,07,14,06,05,7.40
2017,07,14,06,06,7.40
2017,07,14,06,07,7.40
2017,07,14,06,08,7.40
2017,07,14,06,09,7.40
2017,07,14,06,10,7.40
2017,07,14,06,11,7.40
2017,07,14,06,12,7.40
2017,07,14,06,13,7.30
2017,07,14,06,14,7.30
2017,07,14,06,15,7.30
2017,07,14,06,16,7.30
2017,07,14,06,17,7.30
2017,07,14,06,18,7.30
2017,07,14,06,19,7.40
2017,07,14,06,20,7.40
2017,07,14,06,21,7.40
2017,07,14,06,22,7.40
2017,07,14,06,23,7.50
2017,07,14,06,24,7.50
2017,07,14,06,25,7.50
2017,07,14,06,26,7.50
2017,07,14,06,27,7.50
2017,07,14,06,28,7.50
2017,07,14,06,29,7.50
2017,07,14,06,30,7.50
2017,07,14,06,31,7.60
2017,07,14,06,32,7.60
2017,07,14,06,33,7.60
2017,07,14,06,34,7.60
2017,07,14,06,35,7.70
2017,07,14,06,36,7.70
2017,07,14,06,37,7.70
2017,07,14,06,38,7.70
2017,07,14,06,39,7.70
2017,07,14,06,40,7.70
2017,07,14,06,41,7.70
2017,07,14,06,42,7.80
2017,07,14,06,43,7.80
2017,07,14,06,44,7.80
2017,07,14,06,45,7.80
2017,07,14,06,46,7.90
2017,07,14,06,47,8.00
2017,07,14,06,48,8.00
2017,07,14,06,49,8.10
2017,07,14,06,50,8.10
2017,07,14,06,51,8.10
2017,07,14,06,52,8.20
2017,07,14,06,53,8.30
2017,07,14,06,54,8.30
2017,07,14,06,55,8.40
2017,07,14,06,56,8.40
2017,07,14,06,57,8.50
2017,07,14,06,58,8.50
2017,07,14,06,59,8.60
2017,07,14,07,00,8.60
2017,07,14,07,01,8.60
2017,07,14,07,02,8.70
2017,07,14,07,03,8.70
2017,07,14,07,04,8.70
2017,07,14,07,05,8.80
2017,07,14,07,06,8.90
2017,07,14,07,07,8.90
2017,07,14,07,08,8.90
2017,07,14,07,09,9.00
2017,07,14,07,10,9.00
2017,07,14,07,11,9.10
2017,07,14,07,12,9.10
2017,07,14,07,13,9.10
2017,07,14,07,14,9.20
2017,07,14,07,15,9.20
2017,07,14,07,16,9.20
2017,07,14,07,17,9.30
2017,07,14,07,18,9.30
2017,07,14,07,19,9.40
2017,07,14,07,20,9.40
2017,07,14,07,21,9.50
2017,07,14,07,22,9.50
2017,07,14,07,23,9.60
2017,07,14,07,24,9.60
2017,07,14,07,25,9.70
2017,07,14,07,26,9.70
2017,07,14,07,27,9.70
2017,07,14,07,28,9.80
2017,07,14,07,29,9.80
2017,07,14,07,30,9.90
2017,07,14,07,31,9.90
2017,07,14,07,32,10.00
2017,07,14,07,33,10.00
2017,07,14,07,34,10.10
2017,07,14,07,35,10.10
2017,07,14,07,36,10.20
2017,07,14,07,37,10.20
2017,07,14,07,38,10.20
2017,07,14,07,39,10.30
2017,07,14,07,40,10.30
2017,07,14,07,41,10.30
2017,07,14,07,42,10.40
2017,07,14,07,43,10.50
2017,07,14,07,44,10.60
2017,07,14,07,45,10.70
2017,07,14,07,46,10.80
2017,07,14,07,47,10.80
2017,07,14,07,48,10.90
2017,07,14,07,49,11.00
2017,07,14,07,50,11.00
2017,07,14,07,51,11.10
2017,07,14,07,52,11.20
2017,07,14,07,53,11.20
2017,07,14,07,54,11.30
2017,07,14,07,55,11.30
2017,07,14,07,56,11.30
2017,07,14,07,57,11.30
2017,07,14,07,58,11.30
2017,07,14,07,59,11.30
2017,07,14,08,00,11.30
2017,07,14,08,01,11.30
2017,07,14,08,02,11.40
2017,07,14,08,03,11.50
2017,07,14,08,04,11.50
2017,07,14,08,05,11.60
2017,07,14,08,06,11.70
2017,07,14,08,07,11.80
2017,07,14,08,08,11.90
2017,07,14,08,09,11.90
2017,07,14,08,10,12.00
2017,07,14,08,11,12.10
2017,07,14,08,12,12.10
2017,07,14,08,13,12.20
2017,07,14,08,14,12.30
2017,07,14,08,15,12.30
2017,07,14,08,16,12.30
2017,07,14,08,17,12.30
2017,07,14,08,18,12.30
2017,07,14,08,19,12.40
2017,07,14,08,20,12.40
2017,07,14,08,21,12.50
2017,07,14,08,22,12.60
2017,07,14,08,23,12.60
2017,07,14,08,24,12.70
2017,07,14,08,25,12.70
2017,07,14,08,26,12.80
2017,07,14,08,27,12.80
2017,07,14,08,28,12.80
2017,07,14,08,29,12.90
2017,07,14,08,30,13.00
2017,07,14,08,31,13.00
2017,07,14,08,32,13.10
2017,07,14,08,33,13.10
2017,07,14,08,34,13.20
2017,07,14,08,35,13.20
2017,07,14,08,36,13.20
2017,07,14,08,37,13.20
2017,07,14,08,38,13.30
2017,07,14,08,39,13.40
2017,07,14,08,40,13.40
2017,07,14,08,41,13.50
2017,07,14,08,42,13.50
2017,07,14,08,43,13.50
2017,07,14,08,44,13.60
2017,07,14,08,45,13.60
2017,07,14,08,46,13.70
2017,07,14,08,47,13.70
2017,07,14,08,48,13.70
2017,07,14,08,49,13.70
2017,07,14,08,50,13.80
2017,07,14,08,51,13.80
2017,07,14,08,52,13.80
2017,07,14,08,53,13.90
2017,07,14,08,54,13.90
2017,07,14,08,55,13.90
2017,07,14,08,56,13.90
2017,07,14,08,57,13.90
2017,07,14,08,58,13.90
2017,07,14,08,59,14.00
2017,07,14,09,00,14.00
2017,07,14,09,01,14.00
2017,07,14,09,02,14.00
2017,07,14,09,03,14.00
2017,07,14,09,04,14.00
2017,07,14,09,05,14.10
2017,07,14,09,06,14.10
2017,07,14,09,07,14.20
2017,07,14,09,08,14.30
2017,07,14,09,09,14.50
2017,07,14,09,10,14.60
2017,07,14,09,11,14.70
2017,07,14,09,12,14.70
2017,07,14,09,13,14.90
2017,07,14,09,14,15.00
2017,07,14,09,15,15.10
2017,07,14,09,16,15.20
2017,07,14,09,17,15.20
2017,07,14,09,18,15.30
2017,07,14,09,19,15.30
2017,07,14,09,20,15.40
2017,07,14,09,21,15.40
2017,07,14,09,22,15.40
2017,07,14,09,23,15.40
2017,07,14,09,24,15.40
2017,07,14,09,25,15.40
2017,07,14,09,26,15.40
2017,07,14,09,27,15.30
2017,07,14,09,28,15.30
2017,07,14,09,29,15.30
2017,07,14,09,30,15.20
2017,07,14,09,31,15.10
2017,07,14,09,32,15.10
2017,07,14,09,33,15.10
2017,07,14,09,34,15.00
2017,07,14,09,35,15.00
2017,07,14,09,36,14.90
2017,07,14,09,37,14.90
2017,07,14,09,38,14.90
2017,07,14,09,39,14.90
2017,07,14,09,40,15.00
2017,07,14,09,41,15.00
2017,07,14,09,42,15.10
2017,07,14,09,43,15.10
2017,07,14,09,44,15.20
2017,07,14,09,45,15.20
2017,07,14,09,46,15.20
2017,07,14,09,47,15.20
2017,07,14,09,48,15.10
2017,07,14,09,49,15.10
2017,07,14,09,50,15.10
2017,07,14,09,51,15.10
2017,07,14,09,52,15.10
2017,07,14,09,53,15.10
2017,07,14,09,54,15.10
2017,07,14,09,55,15.10
2017,07,14,09,56,15.10
2017,07,14,09,57,15.20
2017,07,14,09,58,15.40
2017,07,14,09,59,15.50
2017,07,14,10,00,15.70
2017,07,14,10,01,15.80
2017,07,14,10,02,15.90
2017,07,14,10,03,16.10
2017,07,14,10,04,16.20
2017,07,14,10,05,16.30
2017,07,14,10,06,16.40
2017,07,14,10,07,16.50
2017,07,14,10,08,16.70
2017,07,14,10,09,16.80
2017,07,14,10,10,16.90
2017,07,14,10,11,17.00
2017,07,14,10,12,17.10
2017,07,14,10,13,17.10
2017,07,14,10,14,17.20
2017,07,14,10,15,17.20
2017,07,14,10,16,17.20
2017,07,14,10,17,17.20
2017,07,14,10,18,17.20
2017,07,14,10,19,17.20
2017,07,14,10,20,17.20
2017,07,14,10,21,17.20
2017,07,14,10,22,17.30
2017,07,14,10,23,17.30
2017,07,14,10,24,17.30
2017,07,14,10,25,17.30
2017,07,14,10,26,17.30
2017,07,14,10,27,17.30
2017,07,14,10,28,17.30
2017,07,14,10,29,17.30
2017,07,14,10,30,17.30
2017,07,14,10,31,17.30
2017,07,14,10,32,17.30
2017,07,14,10,33,17.30
2017,07,14,10,34,17.30
2017,07,14,10,35,17.30
2017,07,14,10,36,17.30
2017,07,14,10,37,17.30
2017,07,14,10,38,17.30
2017,07,14,10,39,17.30
2017,07,14,10,40,17.30
2017,07,14,10,41,17.30
2017,07,14,10,42,17.30
2017,07,14,10,43,17.30
2017,07,14,10,44,17.30
2017,07,14,10,45,17.30
2017,07,14,10,46,17.30
2017,07,14,10,47,17.40
2017,07,14,10,48,17.40
2017,07,14,10,49,17.40
2017,07,14,10,50,17.40
2017,07,14,10,51,17.40
2017,07,14,10,52,17.40
2017,07,14,10,53,17.40
2017,07,14,10,54,17.40
2017,07,14,10,55,17.40
2017,07,14,10,56,17.40
2017,07,14,10,57,17.50
2017,07,14,10,58,17.50
2017,07,14,10,59,17.60
2017,07,14,11,00,17.60
2017,07,14,11,01,17.60
2017,07,14,11,02,17.60
2017,07,14,11,03,17.60
2017,07,14,11,04,17.50
2017,07,14,11,05,17.50
2017,07,14,11,06,17.50
2017,07,14,11,07,17.40
2017,07,14,11,08,17.40
2017,07,14,11,09,17.50
2017,07,14,11,10,17.50
2017,07,14,11,11,17.60
2017,07,14,11,12,17.70
2017,07,14,11,13,17.70
2017,07,14,11,14,17.70
2017,07,14,11,15,17.60
2017,07,14,11,16,17.60
2017,07,14,11,17,17.60
2017,07,14,11,18,17.60
2017,07,14,11,19,17.70
2017,07,14,11,20,17.70
2017,07,14,11,21,17.80
2017,07,14,11,22,17.80
2017,07,14,11,23,17.80
2017,07,14,11,24,17.80
2017,07,14,11,25,17.80
2017,07,14,11,26,17.80
2017,07,14,11,27,17.80
2017,07,14,11,28,17.80
2017,07,14,11,29,17.90
2017,07,14,11,30,17.80
2017,07,14,11,31,17.90
2017,07,14,11,32,18.00
2017,07,14,11,33,18.10
2017,07,14,11,34,18.20
2017,07,14,11,35,18.20
2017,07,14,11,36,18.30
2017,07,14,11,37,18.40
2017,07,14,11,38,18.40
2017,07,14,11,39,18.40
2017,07,14,11,40,18.50
2017,07,14,11,41,18.50
2017,07,14,11,42,18.50
2017,07,14,11,43,18.50
2017,07,14,11,44,18.50
2017,07,14,11,45,18.50
2017,07,14,11,46,18.50
2017,07,14,11,47,18.60
2017,07,14,11,48,18.70
2017,07,14,11,49,18.70
2017,07,14,11,50,18.80
2017,07,14,11,51,18.90
2017,07,14,11,52,18.90
2017,07,14,11,53,18.90
2017,07,14,11,54,18.90
2017,07,14,11,55,19.00
2017,07,14,11,56,19.10
2017,07,14,11,57,19.10
2017,07,14,11,58,19.10
2017,07,14,11,59,19.10
2017,07,14,12,00,19.10
2017,07,14,12,01,19.00
2017,07,14,12,02,18.90
2017,07,14,12,03,18.70
2017,07,14,12,04,18.70
2017,07,14,12,05,18.70
2017,07,14,12,06,18.50
2017,07,14,12,07,18.30
2017,07,14,12,08,18.20
2017,07,14,12,09,18.10
2017,07,14,12,10,18.10
2017,07,14,12,11,18.10
2017,07,14,12,12,18.10
2017,07,14,12,13,18.10
2017,07,14,12,14,18.10
2017,07,14,12,15,18.20
2017,07,14,12,16,18.30
2017,07,14,12,17,18.30
2017,07,14,12,18,18.40
2017,07,14,12,19,18.50
2017,07,14,12,20,18.60
2017,07,14,12,21,18.70
2017,07,14,12,22,18.70
2017,07,14,12,23,18.70
2017,07,14,12,24,18.60
2017,07,14,12,25,18.40
2017,07,14,12,26,18.30
2017,07,14,12,27,18.20
2017,07,14,12,28,18.20
2017,07,14,12,29,18.30
2017,07,14,12,30,18.40
2017,07,14,12,31,18.40
2017,07,14,12,32,18.40
2017,07,14,12,33,18.40
2017,07,14,12,34,18.40
2017,07,14,12,35,18.40
2017,07,14,12,36,18.40
2017,07,14,12,37,18.30
2017,07,14,12,38,18.30
2017,07,14,12,39,18.40
2017,07,14,12,40,18.50
2017,07,14,12,41,18.60
2017,07,14,12,42,18.60
2017,07,14,12,43,18.70
2017,07,14,12,44,18.80
2017,07,14,12,45,18.80
2017,07,14,12,46,18.90
2017,07,14,12,47,18.90
2017,07,14,12,48,18.80
2017,07,14,12,49,18.80
2017,07,14,12,50,18.70
2017,07,14,12,51,18.70
2017,07,14,12,52,18.60
2017,07,14,12,53,18.60
2017,07,14,12,54,18.60
2017,07,14,12,55,18.60
2017,07,14,12,56,18.60
2017,07,14,12,57,18.60
2017,07,14,12,58,18.50
2017,07,14,12,59,18.40
2017,07,14,13,00,18.40
2017,07,14,13,01,18.40
2017,07,14,13,02,18.50
2017,07,14,13,03,18.60
2017,07,14,13,04,18.70
2017,07,14,13,05,18.80
2017,07,14,13,06,18.80
2017,07,14,13,07,18.80
2017,07,14,13,08,18.90
2017,07,14,13,09,19.00
2017,07,14,13,10,19.10
2017,07,14,13,11,19.20
2017,07,14,13,12,19.10
2017,07,14,13,13,19.10
2017,07,14,13,14,19.10
2017,07,14,13,15,19.00
2017,07,14,13,16,18.90
2017,07,14,13,17,18.90
2017,07,14,13,18,18.90
2017,07,14,13,19,19.00
2017,07,14,13,20,19.10
2017,07,14,13,21,19.20
2017,07,14,13,22,19.30
2017,07,14,13,23,19.40
2017,07,14,13,24,19.50
2017,07,14,13,25,19.60
2017,07,14,13,26,19.70
2017,07,14,13,27,19.70
2017,07,14,13,28,19.70
2017,07,14,13,29,19.70
2017,07,14,13,30,19.70
2017,07,14,13,31,19.80
2017,07,14,13,32,19.80
2017,07,14,13,33,19.90
2017,07,14,13,34,19.90
2017,07,14,13,35,19.90
2017,07,14,13,36,19.90
2017,07,14,13,37,19.90
2017,07,14,13,38,19.90
2017,07,14,13,39,19.90
2017,07,14,13,40,19.80
2017,07,14,13,41,19.80
2017,07,14,13,42,19.80
2017,07,14,13,43,19.90
2017,07,14,13,44,20.00
2017,07,14,13,45,20.10
2017,07,14,13,46,20.10
2017,07,14,13,47,20.20
2017,07,14,13,48,20.20
2017,07,14,13,49,20.20
2017,07,14,13,50,20.20
2017,07,14,13,51,20.20
2017,07,14,13,52,20.20
2017,07,14,13,53,20.20
2017,07,14,13,54,20.10
2017,07,14,13,55,20.00
2017,07,14,13,56,20.00
2017,07,14,13,57,19.90
2017,07,14,13,58,19.80
2017,07,14,13,59,19.80
2017,07,14,14,00,19.80
2017,07,14,14,01,19.80
2017,07,14,14,02,19.90
2017,07,14,14,03,20.00
2017,07,14,14,04,20.10
2017,07,14,14,05,20.10
2017,07,14,14,06,20.20
2017,07,14,14,07,20.20
2017,07,14,14,08,20.20
2017,07,14,14,09,20.20
2017,07,14,14,10,20.10
2017,07,14,14,11,20.10
2017,07,14,14,12,20.00
2017,07,14,14,13,19.90
2017,07,14,14,14,19.90
2017,07,14,14,15,19.80
2017,07,14,14,16,19.60
2017,07,14,14,17,19.60
2017,07,14,14,18,19.60
2017,07,14,14,19,19.60
2017,07,14,14,20,19.60
2017,07,14,14,21,19.60
2017,07,14,14,22,19.70
2017,07,14,14,23,19.60
2017,07,14,14,24,19.50
2017,07,14,14,25,19.40
2017,07,14,14,26,19.30
2017,07,14,14,27,19.20
2017,07,14,14,28,19.20
2017,07,14,14,29,19.20
2017,07,14,14,30,19.20
2017,07,14,14,31,19.20
2017,07,14,14,32,19.20
2017,07,14,14,33,19.20
2017,07,14,14,34,19.20
2017,07,14,14,35,19.20
2017,07,14,14,36,19.20
2017,07,14,14,37,19.20
2017,07,14,14,38,19.30
2017,07,14,14,39,19.30
2017,07,14,14,40,19.30
2017,07,14,14,41,19.30
2017,07,14,14,42,19.30
2017,07,14,14,43,19.40
2017,07,14,14,44,19.40
2017,07,14,14,45,19.30
2017,07,14,14,46,19.30
2017,07,14,14,47,19.20
2017,07,14,14,48,19.30
2017,07,14,14,49,19.30
2017,07,14,14,50,19.30
2017,07,14,14,51,19.20
2017,07,14,14,52,19.20
2017,07,14,14,53,19.10
2017,07,14,14,54,19.10
2017,07,14,14,55,19.10
2017,07,14,14,56,19.10
2017,07,14,14,57,19.20
2017,07,14,14,58,19.20
2017,07,14,14,59,19.30
2017,07,14,15,00,19.30
2017,07,14,15,01,19.40
2017,07,14,15,02,19.50
2017,07,14,15,03,19.50
2017,07,14,15,04,19.50
2017,07,14,15,05,19.50
2017,07,14,15,06,19.50
2017,07,14,15,07,19.50
2017,07,14,15,08,19.50
2017,07,14,15,09,19.50
2017,07,14,15,10,19.40
2017,07,14,15,11,19.40
2017,07,14,15,12,19.40
2017,07,14,15,13,19.30
2017,07,14,15,14,19.30
2017,07,14,15,15,19.30
2017,07,14,15,16,19.30
2017,07,14,15,17,19.30
2017,07,14,15,18,19.30
2017,07,14,15,19,19.20
2017,07,14,15,20,19.20
2017,07,14,15,21,19.10
2017,07,14,15,22,19.10
2017,07,14,15,23,19.10
2017,07,14,15,24,19.10
2017,07,14,15,25,19.10
2017,07,14,15,26,19.10
2017,07,14,15,27,19.10
2017,07,14,15,28,19.10
2017,07,14,15,29,19.10
2017,07,14,15,30,19.10
2017,07,14,15,31,19.10
2017,07,14,15,32,19.10
2017,07,14,15,33,19.10
2017,07,14,15,34,19.20
2017,07,14,15,35,19.20
2017,07,14,15,36,19.20
2017,07,14,15,37,19.20
2017,07,14,15,38,19.30
2017,07,14,15,39,19.30
2017,07,14,15,40,19.30
2017,07,14,15,41,19.30
2017,07,14,15,42,19.20
2017,07,14,15,43,19.10
2017,07,14,15,44,19.00
2017,07,14,15,45,18.90
2017,07,14,15,46,18.90
2017,07,14,15,47,18.80
2017,07,14,15,48,18.90
2017,07,14,15,49,18.90
2017,07,14,15,50,19.00
2017,07,14,15,51,19.00
2017,07,14,15,52,19.10
2017,07,14,15,53,19.10
2017,07,14,15,54,19.10
2017,07,14,15,55,19.10
2017,07,14,15,56,19.10
2017,07,14,15,57,19.00
2017,07,14,15,58,19.00
2017,07,14,15,59,19.00
2017,07,14,16,00,19.00
2017,07,14,16,01,18.90
2017,07,14,16,02,18.80
2017,07,14,16,03,18.80
2017,07,14,16,04,18.80
2017,07,14,16,05,18.80
2017,07,14,16,06,18.80
2017,07,14,16,07,18.80
2017,07,14,16,08,18.80
2017,07,14,16,09,18.80
2017,07,14,16,10,18.80
2017,07,14,16,11,18.70
2017,07,14,16,12,18.70
2017,07,14,16,13,18.70
2017,07,14,16,14,18.80
2017,07,14,16,15,18.80
2017,07,14,16,16,18.80
2017,07,14,16,17,18.80
2017,07,14,16,18,18.70
2017,07,14,16,19,18.70
2017,07,14,16,20,18.60
2017,07,14,16,21,18.60
2017,07,14,16,22,18.60
2017,07,14,16,23,18.60
2017,07,14,16,24,18.60
2017,07,14,16,25,18.70
2017,07,14,16,26,18.70
2017,07,14,16,27,18.80
2017,07,14,16,28,18.90
2017,07,14,16,29,19.00
2017,07,14,16,30,19.20
2017,07,14,16,31,19.20
2017,07,14,16,32,19.20
2017,07,14,16,33,19.20
2017,07,14,16,34,19.20
2017,07,14,16,35,19.10
2017,07,14,16,36,19.10
2017,07,14,16,37,19.20
2017,07,14,16,38,19.20
2017,07,14,16,39,19.30
2017,07,14,16,40,19.30
2017,07,14,16,41,19.20
2017,07,14,16,42,19.20
2017,07,14,16,43,19.20
2017,07,14,16,44,19.10
2017,07,14,16,45,19.00
2017,07,14,16,46,19.00
2017,07,14,16,47,19.00
2017,07,14,16,48,19.00
2017,07,14,16,49,19.00
2017,07,14,16,50,18.90
2017,07,14,16,51,18.80
2017,07,14,16,52,18.60
2017,07,14,16,53,18.60
2017,07,14,16,54,18.60
2017,07,14,16,55,18.50
2017,07,14,16,56,18.50
2017,07,14,16,57,18.40
2017,07,14,16,58,18.30
2017,07,14,16,59,18.30
2017,07,14,17,00,18.30
2017,07,14,17,01,18.30
2017,07,14,17,02,18.40
2017,07,14,17,03,18.40
2017,07,14,17,04,18.40
2017,07,14,17,05,18.30
2017,07,14,17,06,18.30
2017,07,14,17,07,18.30
2017,07,14,17,08,18.30
2017,07,14,17,09,18.30
2017,07,14,17,10,18.20
2017,07,14,17,11,18.20
2017,07,14,17,12,18.20
2017,07,14,17,13,18.10
2017,07,14,17,14,18.10
2017,07,14,17,15,18.00
2017,07,14,17,16,18.00
2017,07,14,17,17,18.00
2017,07,14,17,18,18.10
2017,07,14,17,19,18.00
2017,07,14,17,20,18.00
2017,07,14,17,21,18.10
2017,07,14,17,22,18.10
2017,07,14,17,23,18.10
2017,07,14,17,24,18.10
2017,07,14,17,25,18.20
2017,07,14,17,26,18.20
2017,07,14,17,27,18.20
2017,07,14,17,28,18.10
2017,07,14,17,29,18.10
2017,07,14,17,30,18.00
2017,07,14,17,31,18.00
2017,07,14,17,32,18.00
2017,07,14,17,33,18.00
2017,07,14,17,34,17.90
2017,07,14,17,35,17.90
2017,07,14,17,36,17.90
2017,07,14,17,37,17.90
2017,07,14,17,38,17.90